This is the latest recevied weather packets stored in our database for station/object KM5R. If no packets are shown the sender has not sent any weather packets the latest 1 day(s).
| Time | Temp. | Humidity | Pressure | Rain* | Wind** | Luminosity | Snow |
|---|---|---|---|---|---|---|---|
| 1778045058 | 20.56° C | 73% | 1010.6 hPa | 0 mm | - | 0 W/m² | - |
| 1778044452 | 21.11° C | 73% | 1010.8 hPa | 0 mm | - | 0 W/m² | - |
| 1778043846 | 21.67° C | 72% | 1010.8 hPa | 0 mm | - | 0 W/m² | - |
| 1778043240 | 21.67° C | 73% | 1010.8 hPa | 0 mm | - | 0 W/m² | - |
| 1778042331 | 22.78° C | 75% | 1010.8 hPa | 0 mm | - | 0 W/m² | - |
| 1778041727 | 24.44° C | 79% | 1010.5 hPa | 0 mm | - | 0 W/m² | - |
| 1778041124 | 24.44° C | 78% | 1010.4 hPa | 0 mm | - | 0 W/m² | - |
| 1778040517 | 24.44° C | 78% | 1010.3 hPa | 0 mm | - | 0 W/m² | - |
| 1778040215 | 24.44° C | 79% | 1010.2 hPa | 0 mm | - | 0 W/m² | - |
| 1778039911 | 24.44° C | 79% | 1010.3 hPa | 0 mm | - | 0 W/m² | - |
| 1778039609 | 24.44° C | 79% | 1010.1 hPa | 0 mm | - | 0 W/m² | - |
| 1778039003 | 24.44° C | 78% | 1009.7 hPa | 0 mm | - | 0 W/m² | - |
| 1778038700 | 25° C | 78% | 1009.4 hPa | 0 mm | - | 0 W/m² | - |
| 1778038397 | 25° C | 78% | 1009.2 hPa | 0 mm | - | 0 W/m² | - |
| 1778038093 | 25° C | 77% | 1009 hPa | 0 mm | - | 0 W/m² | - |
| 1778037487 | 25° C | 77% | 1008.7 hPa | 0 mm | - | 0 W/m² | - |
| 1778036580 | 25° C | 77% | 1008.3 hPa | 0 mm | - | 0 W/m² | - |
| 1778036277 | 25° C | 77% | 1008.2 hPa | 0 mm | - | 0 W/m² | - |
| 1778035973 | 25° C | 77% | 1008.3 hPa | 0 mm | - | 0 W/m² | - |
| 1778035670 | 25° C | 77% | 1008.3 hPa | 0 mm | - | 0 W/m² | - |
| 1778035367 | 25° C | 76% | 1008.3 hPa | 0 mm | - | 0 W/m² | - |
| 1778035063 | 25° C | 76% | 1008.2 hPa | 0 mm | - | 0 W/m² | - |
| 1778034760 | 25.56° C | 75% | 1008.1 hPa | 0 mm | - | 0 W/m² | - |
| 1778034457 | 25.56° C | 75% | 1008.1 hPa | 0 mm | - | 0 W/m² | - |
| 1778034155 | 25.56° C | 75% | 1007.8 hPa | 0 mm | - | 0 W/m² | - |
* Rain latest hour (hover to see other rain measurements)
** Current wind speed in m/s (hover to see current wind gust speed)